Location: Newark
(36.1358°N, 115.1208°W)
Time: 15:08:40
(UTC+00:00)

BlueWalker 3 - Visible Passes

Search period start: 27 November 2022 00:00
Search period end: 07 December 2022 00:00
Orbit: 500 x 519 km, 53.2° (Epoch: 27 November)

Date Brightness Start Highest point End Pass type
(mag) Time Alt. Az. Time Alt. Az. Time Alt. Az.
27 Nov 4.4 01:42:40 10° WNW 01:44:42 14° NNW 01:46:44 10° N visible
28 Nov 4.4 01:24:30 10° NW 01:26:24 13° NNW 01:28:18 10° N visible
29 Nov 4.4 01:06:21 10° NW 01:08:06 13° NNW 01:09:51 10° N visible
